• In Kazakhstan
  • List of Countries
  • For 7 days
  • Water Temperature
  • Weather Map
  • News
  • Weather Widgets
  • user-avatar
    Login

    Hourly Weather Jewłach

    Today, 25 August, Sunday

    Time Temperature Precipitation Wind Pressure Humidity
    00:00 +27°C° 0 mm 4 mps 759 mmHg 48%
    01:00 +27°C° 0 mm 3 mps 759 mmHg 50%
    02:00 +26°C° 0 mm 2 mps 759 mmHg 52%
    03:00 +26°C° 0 mm 2 mps 759 mmHg 53%
    04:00 +26°C° 0.3 mm 1 mps 759 mmHg 54%
    05:00 +26°C° 0.3 mm 1 mps 759 mmHg 55%
    06:00 +24°C° 0.3 mm 0 mps 759 mmHg 56%
    07:00 +28°C° 0.1 mm 1 mps 759 mmHg 49%
    08:00 +31°C° 0.1 mm 1 mps 759 mmHg 42%
    09:00 +33°C° 0 mm 1 mps 759 mmHg 33%
    10:00 +36°C° 0 mm 2 mps 759 mmHg 28%
    11:00 +38°C° 0 mm 3 mps 758 mmHg 23%
    12:00 +41°C° 0 mm 4 mps 758 mmHg 17%
    13:00 +41°C° 0 mm 4 mps 758 mmHg 16%
    14:00 +42°C° 0 mm 4 mps 757 mmHg 15%
    15:00 +43°C° 0 mm 4 mps 757 mmHg 14%
    16:00 +42°C° 0 mm 4 mps 757 mmHg 14%
    17:00 +40°C° 0 mm 5 mps 757 mmHg 15%
    18:00 +39°C° 0 mm 6 mps 757 mmHg 15%
    19:00 +36°C° 0 mm 5 mps 758 mmHg 18%
    20:00 +33°C° 0 mm 5 mps 759 mmHg 21%
    21:00 +30°C° 0 mm 5 mps 759 mmHg 24%
    22:00 +28°C° 0 mm 4 mps 759 mmHg 29%
    23:00 +27°C° 0 mm 3 mps 759 mmHg 33%

    Tomorrow, 26 August, Monday

    Time Temperature Precipitation Wind Pressure Humidity
    00:00 +26°C° 0 mm 3 mps 759 mmHg 38%
    01:00 +25°C° 0 mm 2 mps 759 mmHg 39%
    02:00 +25°C° 0 mm 2 mps 760 mmHg 41%
    03:00 +24°C° 0 mm 1 mps 760 mmHg 43%
    04:00 +24°C° 0 mm 1 mps 760 mmHg 44%
    05:00 +24°C° 0 mm 1 mps 760 mmHg 45%
    06:00 +22°C° 0 mm 0 mps 760 mmHg 46%
    07:00 +27°C° 0 mm 1 mps 760 mmHg 39%
    08:00 +29°C° 0 mm 1 mps 760 mmHg 33%
    09:00 +32°C° 0 mm 2 mps 760 mmHg 26%
    10:00 +35°C° 0 mm 3 mps 760 mmHg 22%
    11:00 +36°C° 0 mm 4 mps 760 mmHg 18%
    12:00 +38°C° 0 mm 4 mps 760 mmHg 14%
    13:00 +40°C° 0 mm 5 mps 759 mmHg 13%
    14:00 +40°C° 0 mm 5 mps 759 mmHg 12%
    15:00 +41°C° 0 mm 5 mps 759 mmHg 11%
    16:00 +40°C° 0 mm 5 mps 759 mmHg 13%
    17:00 +37°C° 0 mm 4 mps 760 mmHg 15%
    18:00 +36°C° 0 mm 3 mps 760 mmHg 17%
    19:00 +34°C° 0 mm 5 mps 761 mmHg 22%
    20:00 +32°C° 0 mm 6 mps 761 mmHg 27%
    21:00 +30°C° 0 mm 7 mps 762 mmHg 32%
    22:00 +30°C° 0 mm 6 mps 762 mmHg 32%
    23:00 +30°C° 0 mm 6 mps 762 mmHg 32%

    Day after tomorrow, 27 August, Tuesday

    Time Temperature Precipitation Wind Pressure Humidity
    00:00 +30°C° 0 mm 5 mps 762 mmHg 32%
    01:00 +29°C° 0.1 mm 5 mps 762 mmHg 36%
    02:00 +28°C° 0.1 mm 4 mps 762 mmHg 40%
    03:00 +27°C° 0.1 mm 4 mps 762 mmHg 43%
    04:00 +26°C° 0.1 mm 4 mps 762 mmHg 45%
    05:00 +25°C° 0.1 mm 4 mps 762 mmHg 47%
    06:00 +25°C° 0.1 mm 4 mps 762 mmHg 49%
    07:00 +27°C° 0 mm 5 mps 762 mmHg 43%
    08:00 +29°C° 0 mm 5 mps 761 mmHg 38%
    09:00 +32°C° 0 mm 6 mps 761 mmHg 32%
    10:00 +33°C° 0 mm 6 mps 761 mmHg 29%
    11:00 +34°C° 0 mm 5 mps 760 mmHg 26%
    12:00 +36°C° 0 mm 5 mps 760 mmHg 23%
    13:00 +36°C° 0 mm 5 mps 759 mmHg 23%
    14:00 +37°C° 0 mm 5 mps 758 mmHg 22%
    15:00 +37°C° 0 mm 4 mps 758 mmHg 21%
    16:00 +36°C° 0 mm 4 mps 758 mmHg 23%
    17:00 +35°C° 0 mm 4 mps 758 mmHg 25%
    18:00 +34°C° 0 mm 3 mps 758 mmHg 27%
    19:00 +33°C° 0 mm 4 mps 758 mmHg 33%
    20:00 +30°C° 0 mm 4 mps 758 mmHg 39%
    21:00 +28°C° 0 mm 5 mps 758 mmHg 44%
    22:00 +27°C° 0 mm 4 mps 758 mmHg 49%
    23:00 +26°C° 0 mm 4 mps 758 mmHg 53%

    28 August, Wednesday

    Time Temperature Precipitation Wind Pressure Humidity
    00:00 +25°C° 0 mm 3 mps 758 mmHg 58%
    01:00 +24°C° 0 mm 2 mps 758 mmHg 60%
    02:00 +24°C° 0 mm 2 mps 758 mmHg 62%
    03:00 +23°C° 0 mm 1 mps 758 mmHg 64%
    04:00 +23°C° 0 mm 1 mps 759 mmHg 64%
    05:00 +24°C° 0 mm 1 mps 759 mmHg 63%
    06:00 +22°C° 0 mm 0 mps 759 mmHg 63%
    07:00 +26°C° 0 mm 1 mps 759 mmHg 56%
    08:00 +28°C° 0 mm 1 mps 759 mmHg 49%
    09:00 +30°C° 0 mm 1 mps 759 mmHg 41%
    10:00 +31°C° 0 mm 1 mps 758 mmHg 37%
    11:00 +34°C° 0 mm 2 mps 758 mmHg 33%
    12:00 +35°C° 0 mm 2 mps 758 mmHg 29%
    13:00 +36°C° 0 mm 2 mps 757 mmHg 28%
    14:00 +37°C° 0 mm 2 mps 757 mmHg 26%
    15:00 +38°C° 0 mm 3 mps 756 mmHg 24%
    16:00 +37°C° 0 mm 3 mps 757 mmHg 25%
    17:00 +36°C° 0 mm 3 mps 757 mmHg 26%
    18:00 +36°C° 0 mm 3 mps 757 mmHg 27%
    19:00 +33°C° 0 mm 4 mps 757 mmHg 34%
    20:00 +30°C° 0 mm 6 mps 758 mmHg 40%
    21:00 +28°C° 0 mm 7 mps 759 mmHg 47%
    22:00 +27°C° 0 mm 6 mps 759 mmHg 50%
    23:00 +26°C° 0 mm 5 mps 759 mmHg 53%

    29 August, Thursday

    Time Temperature Precipitation Wind Pressure Humidity
    00:00 +25°C° 0 mm 4 mps 759 mmHg 56%
    01:00 +24°C° 0 mm 3 mps 759 mmHg 58%
    02:00 +24°C° 0 mm 3 mps 759 mmHg 59%
    03:00 +22°C° 0 mm 3 mps 759 mmHg 60%
    04:00 +23°C° 0 mm 2 mps 759 mmHg 62%
    05:00 +23°C° 0 mm 1 mps 759 mmHg 65%
    06:00 +23°C° 0 mm 1 mps 759 mmHg 67%
    07:00 +25°C° 0.1 mm 1 mps 759 mmHg 58%
    08:00 +27°C° 0.1 mm 1 mps 759 mmHg 49%
    09:00 +29°C° 0.1 mm 2 mps 759 mmHg 40%
    10:00 +31°C° 0 mm 2 mps 758 mmHg 35%
    11:00 +34°C° 0 mm 3 mps 758 mmHg 30%
    12:00 +36°C° 0 mm 4 mps 758 mmHg 25%
    13:00 +37°C° 0 mm 4 mps 757 mmHg 24%
    14:00 +38°C° 0 mm 4 mps 757 mmHg 22%
    15:00 +39°C° 0 mm 5 mps 756 mmHg 21%
    16:00 +38°C° 0 mm 6 mps 757 mmHg 23%
    17:00 +35°C° 0 mm 8 mps 757 mmHg 26%
    18:00 +34°C° 0 mm 10 mps 757 mmHg 28%
    19:00 +32°C° 0 mm 9 mps 758 mmHg 38%
    20:00 +28°C° 0 mm 8 mps 758 mmHg 48%
    21:00 +26°C° 0 mm 7 mps 759 mmHg 59%
    22:00 +24°C° 0.1 mm 7 mps 759 mmHg 63%
    23:00 +23°C° 0.1 mm 7 mps 759 mmHg 67%

    30 August, Friday

    Time Temperature Precipitation Wind Pressure Humidity
    00:00 +22°C° 0.1 mm 7 mps 759 mmHg 71%
    01:00 +22°C° 0.2 mm 6 mps 759 mmHg 73%
    02:00 +22°C° 0.2 mm 5 mps 759 mmHg 75%
    03:00 +21°C° 0.2 mm 4 mps 759 mmHg 78%
    04:00 +21°C° 0.2 mm 4 mps 759 mmHg 78%
    05:00 +21°C° 0.2 mm 4 mps 760 mmHg 78%
    06:00 +21°C° 0.2 mm 3 mps 760 mmHg 78%
    07:00 +21°C° 0.1 mm 3 mps 760 mmHg 77%
    08:00 +21°C° 0.1 mm 4 mps 760 mmHg 76%
    09:00 +21°C° 0.1 mm 4 mps 760 mmHg 74%
    10:00 +22°C° 0.1 mm 4 mps 760 mmHg 71%
    11:00 +23°C° 0.1 mm 4 mps 760 mmHg 68%
    12:00 +23°C° 0.1 mm 4 mps 759 mmHg 64%
    13:00 +25°C° 0.1 mm 4 mps 759 mmHg 62%
    14:00 +26°C° 0.1 mm 5 mps 759 mmHg 59%
    15:00 +26°C° 0.1 mm 5 mps 759 mmHg 56%
    16:00 +25°C° 0.3 mm 5 mps 759 mmHg 63%
    17:00 +23°C° 0.3 mm 4 mps 759 mmHg 69%
    18:00 +21°C° 0.3 mm 3 mps 759 mmHg 76%
    19:00 +21°C° 0.4 mm 3 mps 759 mmHg 77%
    20:00 +21°C° 0.4 mm 3 mps 760 mmHg 79%
    21:00 +21°C° 0.4 mm 4 mps 760 mmHg 81%
    22:00 +20°C° 0.2 mm 3 mps 760 mmHg 81%
    23:00 +20°C° 0.2 mm 3 mps 759 mmHg 81%
    Show more